GW1675 Weather Reports


Display with metric or nautical units.
time (UTC)temp
F
wind
direction
speed
MPH
gust
MPH
rain 1hr
in
rain 24hr
in
rain mn
in
humidity
%
barometer
mb
20260831111550 78 86 5.0 12.0 0.00 0.00 0.00 68 1019.9
20260831110100 77 86 7.0 10.0 0.00 0.00 0.00 68 1020.1
20260831104559 77 86 7.0 12.0 0.00 0.00 0.00 68 1020.2
20260831103055 78 84 5.0 11.0 0.00 0.00 0.00 69 1020.2
20260831101604 77 84 7.0 13.0 0.00 0.00 0.00 69 1020.1
20260831094605 79 82 6.0 10.0 0.00 0.00 0.00 69 1020.0
20260831093139 81 82 5.0 9.0 0.00 0.00 0.00 69 1019.6
20260831091559 80 82 6.0 9.0 0.00 0.00 0.00 69 1019.6
20260831090101 79 82 5.0 9.0 0.00 0.00 0.00 69 1019.5
20260831084639 78 82 3.0 8.0 0.00 0.00 0.00 69 1019.4
20260831083051 76 82 6.0 12.0 0.00 0.00 0.00 69 1019.3
20260831081602 75 82 8.0 14.0 0.00 0.00 0.00 69 1019.3
20260831080121 75 82 6.0 11.0 0.00 0.00 0.00 69 1019.3
20260831074557 74 82 4.0 11.0 0.00 0.00 0.00 68 1019.2
20260831073101 74 82 3.0 5.0 0.00 0.00 0.00 68 1019.2
20260831071601 73 82 0.0 5.0 0.00 0.00 0.00 68 1019.1
20260831070059 72 82 4.0 14.0 0.00 0.00 0.00 68 1019.0
20260831064557 72 82 7.0 16.0 0.00 0.00 0.00 68 1018.9
20260831063110 72 82 7.0 14.0 0.00 0.00 0.00 68 1018.6
20260831061557 71 82 9.0 13.0 0.00 0.00 0.00 68 1018.5
20260831060123 71 82 7.0 15.0 0.00 0.00 0.00 68 1018.5
20260831054555 71 82 7.0 15.0 0.00 0.00 0.00 68 1018.6
20260831053058 71 81 8.0 14.0 0.00 0.00 0.00 68 1018.7
20260831051555 71 82 9.0 14.0 0.00 0.00 0.00 68 1018.7
20260831050051 72 82 7.0 15.0 0.00 0.00 0.00 68 1018.6
20260831044600 72 81 7.0 15.0 0.00 0.00 0.00 68 1018.6
20260831043058 72 81 7.0 14.0 0.00 0.00 0.00 68 1018.7
20260831041551 73 81 7.0 11.0 0.00 0.00 0.00 68 1018.7
20260831040057 73 81 6.0 12.0 0.00 0.00 0.00 68 1018.8
20260831034610 73 81 6.0 12.0 0.00 0.00 0.00 69 1018.8
20260831033100 74 81 11.0 16.0 0.00 0.00 0.00 69 1018.8
20260831031600 74 80 7.0 12.0 0.00 0.00 0.00 69 1018.8
20260831030100 74 80 7.0 15.0 0.00 0.00 0.00 69 1018.9
20260831024601 74 80 8.0 16.0 0.00 0.00 0.00 69 1019.0
20260831023053 75 80 9.0 15.0 0.00 0.00 0.00 69 1019.2
20260831021601 75 80 10.0 17.0 0.00 0.00 0.00 69 1019.1
20260831014558 76 78 8.0 21.0 0.00 0.00 0.00 69 1019.1
20260831013050 76 80 9.0 16.0 0.00 0.00 0.00 69 1019.2
20260831011604 76 80 8.0 16.0 0.00 0.00 0.00 69 1019.2
20260831010107 76 79 10.0 17.0 0.00 0.00 0.00 69 1019.2
20260831004600 77 79 8.0 16.0 0.00 0.00 0.00 69 1019.2
20260831003051 77 78 7.0 15.0 0.00 0.00 0.00 69 1019.2
20260831001620 78 77 9.0 16.0 0.00 0.00 0.00 69 1019.2
20260831000059 78 77 10.0 16.0 0.00 0.00 0.00 69 1019.0
20260830234608 78 77 10.0 16.0 0.00 0.00 0.00 70 1019.1
20260830233118 79 75 9.0 20.0 0.00 0.00 0.00 70 1019.0
20260830231600 79 74 8.0 18.0 0.00 0.00 0.00 70 1019.0
20260830230109 79 72 9.0 19.0 0.00 0.00 0.00 70 1018.8
20260830224606 79 72 11.0 18.0 0.00 0.00 0.00 70 1018.8
20260830223100 80 72 10.0 21.0 0.00 0.00 0.00 70 1018.6
20260830221556 80 72 10.0 17.0 0.00 0.00 0.00 70 1018.8
20260830220107 81 72 12.0 20.0 0.00 0.00 0.00 70 1018.8
20260830214600 81 72 11.0 18.0 0.00 0.00 0.00 70 1018.7
20260830213051 82 72 9.0 17.0 0.00 0.00 0.00 70 1018.7
20260830211559 82 153 6.0 13.0 0.00 0.00 0.00 70 1018.5
20260830210105 82 165 5.0 10.0 0.00 0.00 0.00 70 1018.5
20260830204559 83 168 5.0 9.0 0.00 0.00 0.00 71 1018.3
20260830203051 85 169 5.0 14.0 0.00 0.00 0.00 71 1018.2
20260830201549 85 168 4.0 7.0 0.00 0.00 0.00 71 1018.0
20260830200057 84 168 3.0 5.0 0.00 0.00 0.00 71 1017.8
20260830194601 82 168 1.0 3.0 0.00 0.00 0.00 70 1017.5
20260830193050 82 168 1.0 4.0 0.00 0.00 0.00 71 1017.4
20260830191607 83 168 2.0 4.0 0.00 0.00 0.00 71 1017.5
20260830190100 84 168 3.0 6.0 0.00 0.00 0.00 71 1017.4
20260830184551 85 168 2.0 5.0 0.00 0.00 0.00 71 1017.3
20260830183106 86 168 3.0 10.0 0.00 0.00 0.00 71 1017.4
20260830181559 86 168 5.0 11.0 0.00 0.00 0.00 71 1017.3
20260830180058 87 168 3.0 11.0 0.00 0.00 0.00 72 1017.4
20260830174615 86 168 7.0 14.0 0.00 0.00 0.00 72 1017.5
20260830173056 87 168 6.0 11.0 0.00 0.00 0.00 72 1017.5
20260830171607 87 168 5.0 14.0 0.00 0.00 0.00 72 1017.6
20260830170100 87 167 6.0 13.0 0.00 0.00 0.00 72 1017.6
20260830164554 87 167 6.0 13.0 0.00 0.00 0.00 72 1017.6
20260830163105 87 167 7.0 13.0 0.00 0.00 0.00 72 1017.7
20260830161558 87 167 6.0 14.0 0.00 0.00 0.00 72 1017.7
20260830160105 87 167 8.0 14.0 0.00 0.00 0.00 72 1017.7
20260830154548 85 168 9.0 14.0 0.00 0.00 0.00 72 1017.9
20260830153100 84 168 6.0 14.0 0.00 0.00 0.00 72 1018.0
20260830151557 84 168 8.0 16.0 0.00 0.00 0.00 72 1018.2
20260830150100 84 165 9.0 15.0 0.00 0.00 0.00 72 1018.2
20260830144602 85 162 6.0 14.0 0.00 0.00 0.00 72 1018.3
20260830143101 86 162 8.0 14.0 0.00 0.00 0.00 72 1018.4
20260830141559 85 158 9.0 13.0 0.00 0.00 0.00 72 1018.6
20260830140058 84 160 5.0 13.0 0.00 0.00 0.00 72 1018.8
20260830134601 82 157 9.0 14.0 0.00 0.00 0.00 72 1018.8
20260830133059 82 150 7.0 13.0 0.00 0.00 0.00 72 1019.1
20260830131558 81 148 9.0 14.0 0.00 0.00 0.00 72 1019.1
20260830130106 82 113 8.0 14.0 0.00 0.00 0.00 72 1019.2
20260830124552 82 103 8.0 12.0 0.00 0.00 0.00 72 1019.4
20260830123059 82 102 8.0 13.0 0.00 0.00 0.00 72 1019.5
20260830121605 81 101 7.0 13.0 0.00 0.00 0.00 72 1019.6
20260830120055 83 97 7.0 12.0 0.00 0.00 0.00 72 1019.6
20260830114555 83 96 6.0 10.0 0.00 0.00 0.00 72 1019.6
20260830113051 82 96 5.0 11.0 0.00 0.00 0.00 72 1019.8